When you browse on this site, cookies collect data to enhance your experience and personalize the content and advertising you see.
Visit our Privacy Policy to learn more. By continuing to use the site, you agree to this use of cookies and data.
  • In Slovakia
  • List of Countries
  • For 7 days
  • Water Temperature
  • Weather Map
  • Weather Widgets
  • user-avatar
    Login

    Hourly Weather Babaevichi

    Today, 30 May, Saturday

    Time Temperature Precipitation Wind Pressure Humidity
    00:00 +10°C° 0 mm 6 mps 744 mmHg 82%
    01:00 +10°C° 0 mm 6 mps 744 mmHg 83%
    02:00 +10°C° 0 mm 6 mps 743 mmHg 84%
    03:00 +10°C° 0.1 mm 6 mps 743 mmHg 85%
    04:00 +10°C° 0.1 mm 6 mps 742 mmHg 86%
    05:00 +10°C° 0.1 mm 7 mps 742 mmHg 86%
    06:00 +10°C° 1.7 mm 7 mps 742 mmHg 89%
    07:00 +10°C° 1.7 mm 7 mps 742 mmHg 92%
    08:00 +9°C° 1.7 mm 7 mps 741 mmHg 95%
    09:00 +9°C° 2.7 mm 7 mps 741 mmHg 95%
    10:00 +9°C° 2.7 mm 8 mps 741 mmHg 95%
    11:00 +9°C° 2.7 mm 8 mps 740 mmHg 95%
    12:00 +10°C° 1.6 mm 8 mps 740 mmHg 95%
    13:00 +10°C° 1.6 mm 8 mps 740 mmHg 95%
    14:00 +11°C° 1.6 mm 8 mps 739 mmHg 95%
    15:00 +11°C° 1 mm 8 mps 739 mmHg 94%
    16:00 +12°C° 1 mm 8 mps 738 mmHg 93%
    17:00 +12°C° 1 mm 8 mps 737 mmHg 92%
    18:00 +12°C° 0.9 mm 8 mps 737 mmHg 92%
    19:00 +12°C° 0.9 mm 9 mps 736 mmHg 93%
    20:00 +12°C° 0.9 mm 9 mps 735 mmHg 93%
    21:00 +12°C° 1.5 mm 9 mps 735 mmHg 93%
    22:00 +12°C° 1.5 mm 10 mps 735 mmHg 93%
    23:00 +12°C° 1.5 mm 10 mps 735 mmHg 93%

    Tomorrow, 31 May, Sunday

    Time Temperature Precipitation Wind Pressure Humidity
    00:00 +12°C° 0.2 mm 10 mps 735 mmHg 93%
    01:00 +12°C° 0.2 mm 10 mps 735 mmHg 94%
    02:00 +12°C° 0.2 mm 10 mps 735 mmHg 94%
    03:00 +12°C° 0.1 mm 9 mps 736 mmHg 94%
    04:00 +12°C° 0.1 mm 8 mps 736 mmHg 94%
    05:00 +12°C° 0.1 mm 8 mps 737 mmHg 94%
    06:00 +12°C° 0.2 mm 8 mps 738 mmHg 94%
    07:00 +11°C° 0.2 mm 8 mps 738 mmHg 94%
    08:00 +11°C° 0.2 mm 8 mps 739 mmHg 94%
    09:00 +11°C° 0.2 mm 8 mps 739 mmHg 93%
    10:00 +11°C° 0.2 mm 8 mps 740 mmHg 92%
    11:00 +11°C° 0.2 mm 9 mps 741 mmHg 91%
    12:00 +11°C° 0.2 mm 9 mps 741 mmHg 91%
    13:00 +10°C° 0.2 mm 9 mps 741 mmHg 90%
    14:00 +8°C° 0.2 mm 9 mps 741 mmHg 90%
    15:00 +10°C° 0 mm 8 mps 742 mmHg 88%
    16:00 +10°C° 0 mm 7 mps 742 mmHg 86%
    17:00 +11°C° 0 mm 7 mps 743 mmHg 84%
    18:00 +11°C° 0.1 mm 6 mps 743 mmHg 85%
    19:00 +12°C° 0.1 mm 5 mps 744 mmHg 86%
    20:00 +12°C° 0.1 mm 4 mps 744 mmHg 87%
    21:00 +11°C° 0 mm 4 mps 744 mmHg 86%
    22:00 +10°C° 0 mm 4 mps 745 mmHg 85%
    23:00 +9°C° 0 mm 5 mps 745 mmHg 84%

    Day after tomorrow, 1 June, Monday

    Time Temperature Precipitation Wind Pressure Humidity
    00:00 +8°C° 0 mm 5 mps 745 mmHg 83%
    01:00 +7°C° 0 mm 5 mps 746 mmHg 82%
    02:00 +7°C° 0 mm 5 mps 746 mmHg 81%
    03:00 +6°C° 0 mm 5 mps 746 mmHg 82%
    04:00 +6°C° 0 mm 5 mps 746 mmHg 83%
    05:00 +5°C° 0 mm 5 mps 746 mmHg 83%
    06:00 +6°C° 0 mm 5 mps 747 mmHg 79%
    07:00 +8°C° 0 mm 5 mps 747 mmHg 74%
    08:00 +9°C° 0 mm 6 mps 747 mmHg 70%
    09:00 +10°C° 0 mm 6 mps 747 mmHg 67%
    10:00 +10°C° 0 mm 7 mps 747 mmHg 65%
    11:00 +11°C° 0 mm 7 mps 747 mmHg 62%
    12:00 +11°C° 0 mm 7 mps 747 mmHg 62%
    13:00 +11°C° 0 mm 6 mps 747 mmHg 62%
    14:00 +11°C° 0 mm 6 mps 747 mmHg 62%
    15:00 +11°C° 0.1 mm 6 mps 747 mmHg 63%
    16:00 +12°C° 0.1 mm 5 mps 747 mmHg 63%
    17:00 +12°C° 0.1 mm 5 mps 747 mmHg 64%
    18:00 +11°C° 0 mm 4 mps 747 mmHg 68%
    19:00 +9°C° 0 mm 3 mps 747 mmHg 73%
    20:00 +8°C° 0 mm 3 mps 747 mmHg 78%
    21:00 +7°C° 0 mm 3 mps 747 mmHg 80%
    22:00 +6°C° 0 mm 2 mps 747 mmHg 81%
    23:00 +5°C° 0 mm 2 mps 747 mmHg 82%

    2 June, Tuesday

    Time Temperature Precipitation Wind Pressure Humidity
    00:00 +4°C° 0 mm 3 mps 747 mmHg 83%
    01:00 +4°C° 0 mm 3 mps 746 mmHg 85%
    02:00 +3°C° 0 mm 3 mps 746 mmHg 86%
    03:00 +3°C° 0 mm 3 mps 746 mmHg 86%
    04:00 +4°C° 0 mm 3 mps 746 mmHg 86%
    05:00 +4°C° 0 mm 4 mps 746 mmHg 86%
    06:00 +6°C° 0 mm 4 mps 746 mmHg 82%
    07:00 +7°C° 0 mm 5 mps 745 mmHg 78%
    08:00 +9°C° 0 mm 5 mps 745 mmHg 74%
    09:00 +9°C° 0.2 mm 5 mps 745 mmHg 76%
    10:00 +9°C° 0.2 mm 5 mps 745 mmHg 78%
    11:00 +9°C° 0.2 mm 6 mps 745 mmHg 80%
    12:00 +10°C° 0.6 mm 6 mps 744 mmHg 78%
    13:00 +11°C° 0.6 mm 6 mps 744 mmHg 76%
    14:00 +14°C° 0.6 mm 7 mps 743 mmHg 74%
    15:00 +13°C° 0.5 mm 6 mps 743 mmHg 76%
    16:00 +13°C° 0.5 mm 6 mps 743 mmHg 77%
    17:00 +13°C° 0.5 mm 5 mps 743 mmHg 79%
    18:00 +12°C° 0.2 mm 5 mps 742 mmHg 81%
    19:00 +10°C° 0.2 mm 5 mps 742 mmHg 83%
    20:00 +10°C° 0.2 mm 4 mps 742 mmHg 86%
    21:00 +10°C° 0.1 mm 4 mps 741 mmHg 87%
    22:00 +9°C° 0.1 mm 5 mps 741 mmHg 89%
    23:00 +8°C° 0.1 mm 5 mps 741 mmHg 90%

    3 June, Wednesday

    Time Temperature Precipitation Wind Pressure Humidity
    00:00 +8°C° 0.2 mm 5 mps 740 mmHg 90%
    01:00 +8°C° 0.2 mm 6 mps 740 mmHg 90%
    02:00 +8°C° 0.2 mm 6 mps 739 mmHg 89%
    03:00 +8°C° 0.1 mm 6 mps 739 mmHg 90%
    04:00 +8°C° 0.1 mm 6 mps 738 mmHg 90%
    05:00 +8°C° 0.1 mm 6 mps 738 mmHg 91%
    06:00 +8°C° 0.7 mm 6 mps 738 mmHg 92%
    07:00 +8°C° 0.7 mm 6 mps 738 mmHg 94%
    08:00 +8°C° 0.7 mm 6 mps 737 mmHg 95%
    09:00 +9°C° 0.9 mm 7 mps 737 mmHg 95%
    10:00 +9°C° 0.9 mm 7 mps 737 mmHg 94%
    11:00 +10°C° 0.9 mm 7 mps 737 mmHg 94%
    12:00 +10°C° 0.2 mm 6 mps 737 mmHg 93%
    13:00 +11°C° 0.2 mm 6 mps 737 mmHg 92%
    14:00 +13°C° 0.2 mm 5 mps 737 mmHg 91%
    15:00 +13°C° 0.6 mm 5 mps 737 mmHg 88%
    16:00 +14°C° 0.6 mm 4 mps 737 mmHg 85%
    17:00 +16°C° 0.6 mm 3 mps 737 mmHg 82%
    18:00 +14°C° 0.2 mm 3 mps 737 mmHg 84%
    19:00 +14°C° 0.2 mm 2 mps 737 mmHg 86%
    20:00 +13°C° 0.2 mm 2 mps 737 mmHg 88%
    21:00 +12°C° 0 mm 2 mps 737 mmHg 89%
    22:00 +10°C° 0 mm 2 mps 738 mmHg 91%
    23:00 +9°C° 0 mm 2 mps 738 mmHg 93%

    4 June, Thursday

    Time Temperature Precipitation Wind Pressure Humidity
    00:00 +8°C° 0 mm 2 mps 738 mmHg 93%
    01:00 +9°C° 0 mm 1 mps 738 mmHg 92%
    02:00 +8°C° 0 mm 1 mps 738 mmHg 92%
    03:00 +8°C° 0 mm 1 mps 738 mmHg 93%
    04:00 +8°C° 0 mm 2 mps 738 mmHg 93%
    05:00 +8°C° 0 mm 2 mps 738 mmHg 94%
    06:00 +9°C° 0 mm 2 mps 738 mmHg 91%
    07:00 +11°C° 0 mm 3 mps 738 mmHg 88%
    08:00 +12°C° 0 mm 3 mps 738 mmHg 85%
    09:00 +13°C° 0.6 mm 3 mps 738 mmHg 81%
    10:00 +14°C° 0.6 mm 3 mps 738 mmHg 77%
    11:00 +16°C° 0.6 mm 3 mps 738 mmHg 73%
    12:00 +17°C° 1 mm 2 mps 738 mmHg 72%
    13:00 +17°C° 1 mm 2 mps 738 mmHg 72%
    14:00 +17°C° 1 mm 2 mps 737 mmHg 71%
    15:00 +17°C° 1.3 mm 2 mps 737 mmHg 71%
    16:00 +18°C° 1.3 mm 1 mps 737 mmHg 72%
    17:00 +18°C° 1.3 mm 1 mps 737 mmHg 72%
    18:00 +16°C° 0.5 mm 1 mps 737 mmHg 77%
    19:00 +14°C° 0.5 mm 1 mps 737 mmHg 83%
    20:00 +13°C° 0.5 mm 1 mps 737 mmHg 88%
    21:00 +12°C° 0 mm 1 mps 737 mmHg 89%
    22:00 +11°C° 0 mm 1 mps 737 mmHg 90%
    23:00 +10°C° 0 mm 1 mps 738 mmHg 92%
    Show more